Eureka, NV

1:11 PM PDT on April 22, 2018 (GMT -0700)
Eureka

Weather History for KP68 - September, 2012

Change the Weather History Date:

Wednesday, September 19, 2012

  Actual Average Record
Temperature  
Mean Temperature 63 °F 57 °F  
Max Temperature 83 °F 77 °F 88 °F (1981)
Min Temperature 43 °F 37 °F 19 °F (1971)
Degree Days  
Heating Degree Days 2 8  
Month to date heating degree days 29 100  
Since 1 July heating degree days 29 147  
Cooling Degree Days 0 0  
Month to date cooling degree days 20 9  
Year to date cooling degree days 528 286  
Growing Degree Days 13 (Base 50)    
Moisture  
Dew Point 22 °F    
Average Humidity 25    
Maximum Humidity 41    
Minimum Humidity 9    
Precipitation  
Precipitation 0.00 in 0.02 in 0.76 in (2004)
Month to date precipitation 0.36 0.37  
Year to date precipitation 5.02 6.66  
Sea Level Pressure  
Sea Level Pressure 30.08 in    
Wind  
Wind Speed 6 mph (SSW)    
Max Wind Speed 13 mph    
Max Gust Speed 16 mph    
T = Trace of Precipitation, MM = Missing Value Source: NWS Daily Summary

Daily Weather History Graph

Daily Weather History Graph

Search for Another Location

Airport or City:

Astronomy

Sep. 19, 2012 Rise Set
Actual Time 6:29 AM PDT 6:44 PM PDT
Civil Twilight 6:02 AM PDT 7:11 PM PDT
Nautical Twilight 5:30 AM PDT 7:43 PM PDT
Astronomical Twilight 4:58 AM PDT 8:15 PM PDT
Moon 10:43 AM PDT (9/19) 8:59 PM PDT (9/19)
Length of Visible Light 13h 09m
Length of Day
12h 15m
Waxing Crescent, 18% of the Moon is Illuminated
Sep 19
Waxing Crescent
Sep 22
First Quarter
Sep 29
Full
Oct 8
Last Quarter
Oct 15
New

Hourly Weather History & Observations

Time (PDT) Temp. Windchill Dew Point Humidity Pressure Visibility Wind Dir Wind Speed Gust Speed Precip Events Conditions
12:53 AM 46.9 °F - 21.9 °F 37% 30.08 in - South 6.9 mph - N/A   Unknown
1:53 AM 48.0 °F - 23.0 °F 37% 30.08 in - SSW 8.1 mph - N/A   Unknown
2:53 AM 44.1 °F 39.5 °F 21.9 °F 42% 30.08 in - South 8.1 mph - N/A   Unknown
3:53 AM 48.0 °F - 24.1 °F 39% 30.07 in - South 8.1 mph - N/A   Unknown
4:53 AM 46.0 °F 43.1 °F 23.0 °F 40% 30.08 in - South 5.8 mph - N/A   Unknown
5:53 AM 45.0 °F 41.2 °F 23.0 °F 42% 30.09 in - SSW 6.9 mph - N/A   Unknown
6:53 AM 46.0 °F 41.0 °F 21.9 °F 39% 30.13 in - SSW 10.4 mph - N/A   Unknown
7:53 AM 53.1 °F - 26.1 °F 35% 30.17 in - South 3.5 mph - N/A   Unknown
8:53 AM 63.0 °F - 21.0 °F 20% 30.14 in - Calm Calm - N/A   Unknown
9:53 AM 69.1 °F - 19.9 °F 15% 30.13 in - Variable 3.5 mph - N/A   Unknown
10:53 AM 73.0 °F - 21.9 °F 15% 30.13 in - NNE 5.8 mph - N/A   Unknown
11:53 AM 78.1 °F - 21.9 °F 12% 30.12 in - North 6.9 mph - N/A   Unknown
12:53 PM 80.1 °F - 21.9 °F 12% 30.09 in - NE 5.8 mph - N/A   Unknown
1:53 PM 82.0 °F - 19.9 °F 10% 30.06 in - North 5.8 mph - N/A   Unknown
2:53 PM 82.0 °F - 19.9 °F 10% 30.05 in - NNW 4.6 mph - N/A   Unknown
3:53 PM 82.9 °F - 19.9 °F 10% 30.01 in - North 8.1 mph - N/A   Unknown
4:53 PM 82.0 °F - 18.0 °F 9% 30.02 in - North 5.8 mph - N/A   Unknown
5:53 PM 80.1 °F - 19.0 °F 10% 30.02 in - NNE 9.2 mph - N/A   Unknown
6:53 PM 66.9 °F - 26.1 °F 21% 30.07 in - NNE 6.9 mph - N/A   Unknown
7:53 PM 63.0 °F - 25.0 °F 24% 30.08 in - North 3.5 mph - N/A   Unknown
8:53 PM 55.0 °F - 21.9 °F 28% 30.09 in - Calm Calm - N/A   Unknown
9:53 PM 53.1 °F - 21.0 °F 29% 30.09 in - South 6.9 mph - N/A   Unknown
10:53 PM 48.9 °F - 19.9 °F 32% 30.09 in - SSW 5.8 mph - N/A   Unknown
11:53 PM 51.1 °F - 21.0 °F 31% 30.06 in - South 6.9 mph - N/A   Unknown